Date String (YYYY-MM-DD hh:mm:ss) UTC,Instrument flags,Ambient pressure (hPa),Sample flow (lpm),Bypass flow (lpm),Sample temperature (°C),Ambient temperature (°C),ASC tube jacket temperature (°C),LED temperature (°C),Box temperature (°C),Sample RH (%),Span deviation,Mass concentration (μg/m³),Mass concentration (μg/m³),Mass concentration (μg/m³)
DateTimeUTC,F1_M11,P_M11,Q1_M11,Q2_M11,T1_M11,T2_M11,T3_M11,T4_M11,T5_M11,U1_M11,ZSPAN_M11,X0_M11,X2_M11,X1_M11
2022-07-09 04:00:00,,0832.5,5.01,0.00,29.3,28.0,00.0,38.0,31.2,29.7,0000.0,0009.06,0003.68,0003.04
2022-07-09 04:01:00,,0832.6,5.00,0.00,29.3,28.1,00.0,38.0,31.2,29.7,0000.0,0009.12,0003.72,0003.06
2022-07-09 04:02:00,,0832.6,5.00,0.00,29.3,28.2,00.0,38.1,31.3,29.5,0000.0,0008.95,0003.77,0003.08
2022-07-09 04:03:00,,0832.6,4.99,0.00,29.4,28.4,00.0,38.1,31.4,29.4,0000.0,0008.86,0003.82,0003.10
2022-07-09 04:04:00,,0832.6,5.00,0.00,29.4,28.4,00.0,38.1,31.4,29.4,0000.0,0008.86,0003.85,0003.12
2022-07-09 04:05:00,,0832.6,5.00,0.00,29.5,28.5,00.0,38.1,31.5,29.3,0000.0,0008.74,0003.84,0003.12
2022-07-09 04:06:00,,0832.6,5.01,0.00,29.5,28.2,00.0,38.1,31.4,29.3,0000.0,0008.48,0003.85,0003.13
2022-07-09 04:07:00,,0832.7,5.00,0.00,29.4,27.4,00.0,38.0,31.3,29.2,0000.0,0008.55,0003.90,0003.15
2022-07-09 04:08:00,,0832.7,4.99,0.00,29.4,26.9,00.0,38.0,31.2,29.2,0000.0,0008.50,0003.89,0003.15
2022-07-09 04:09:00,,0832.7,5.00,0.00,29.3,26.8,00.0,38.0,31.0,29.4,0000.0,0008.58,0003.90,0003.16
2022-07-09 04:10:00,,0832.7,5.00,0.00,29.2,26.9,00.0,38.0,31.0,29.6,0000.0,0008.82,0003.95,0003.17
2022-07-09 04:11:00,,0832.7,5.01,0.00,29.2,27.1,00.0,38.0,31.0,29.5,0000.0,0008.73,0003.96,0003.17
2022-07-09 04:12:00,,0832.8,5.01,0.00,29.2,27.3,00.0,38.0,31.0,29.4,0000.0,0009.06,0003.99,0003.16
2022-07-09 04:13:00,,0832.7,5.00,0.00,29.2,27.4,00.0,38.0,31.1,29.5,0000.0,0009.23,0003.97,0003.16
2022-07-09 04:14:00,,0832.8,5.00,0.00,29.2,27.6,00.0,38.0,31.1,29.6,0000.0,0009.23,0003.95,0003.16
2022-07-09 04:15:00,,0832.7,4.99,0.00,29.2,27.8,00.0,38.0,31.1,29.5,0000.0,0009.32,0003.97,0003.16
2022-07-09 04:16:00,,0832.8,5.00,0.00,29.3,27.9,00.0,38.0,31.2,29.3,0000.0,0009.23,0004.00,0003.15
2022-07-09 04:17:00,,0832.8,5.00,0.00,29.3,28.1,00.0,38.0,31.2,29.1,0000.0,0009.32,0004.04,0003.15
2022-07-09 04:18:00,,0832.8,5.00,0.00,29.3,28.2,00.0,38.1,31.3,29.0,0000.0,0009.48,0004.03,0003.15
2022-07-09 04:19:00,,0832.9,5.01,0.00,29.4,28.3,00.0,38.1,31.3,28.9,0000.0,0009.50,0004.03,0003.15
2022-07-09 04:20:00,,0832.8,5.00,0.00,29.4,28.4,00.0,38.1,31.4,28.7,0000.0,0009.72,0004.06,0003.15
2022-07-09 04:21:00,,0832.8,5.00,0.00,29.5,28.5,00.0,38.1,31.4,28.5,0000.0,0009.47,0004.05,0003.14
2022-07-09 04:22:00,,0832.8,5.00,0.00,29.5,28.6,00.0,38.1,31.5,28.3,0000.0,0009.43,0004.04,0003.13
2022-07-09 04:23:00,,0832.9,5.01,0.00,29.5,28.3,00.0,38.1,31.5,28.3,0000.0,0009.69,0004.02,0003.12
2022-07-09 04:24:00,,0832.8,5.00,0.00,29.5,27.4,00.0,38.1,31.3,28.3,0000.0,0009.51,0004.00,0003.12
2022-07-09 04:25:00,,0832.8,5.00,0.00,29.4,26.9,00.0,38.0,31.2,28.3,0000.0,0009.50,0004.00,0003.13
2022-07-09 04:26:00,,0832.7,4.99,0.00,29.3,26.8,00.0,38.0,31.1,27.6,0000.0,0009.42,0003.97,0003.13
2022-07-09 04:27:00,,0832.8,5.00,0.00,29.3,26.9,00.0,38.0,31.0,27.1,0000.0,0009.26,0003.92,0003.12
2022-07-09 04:28:00,,0832.7,5.01,0.00,29.2,27.0,00.0,38.0,31.0,28.1,0000.0,0008.74,0003.85,0003.12
2022-07-09 04:29:00,,0832.7,5.00,0.00,29.2,27.2,00.0,38.0,31.0,28.5,0000.0,0008.53,0003.84,0003.12
2022-07-09 04:30:00,,0832.8,5.01,0.00,29.2,27.4,00.0,38.0,31.1,28.3,0000.0,0008.67,0003.83,0003.11
2022-07-09 04:31:00,,0832.8,4.99,0.00,29.2,27.6,00.0,38.0,31.1,28.3,0000.0,0008.52,0003.84,0003.12
2022-07-09 04:32:00,,0832.9,5.00,0.00,29.3,27.8,00.0,38.0,31.1,28.2,0000.0,0008.46,0003.85,0003.12
2022-07-09 04:33:00,,0832.9,5.00,0.00,29.3,27.9,00.0,38.0,31.2,28.4,0000.0,0008.27,0003.83,0003.12
2022-07-09 04:34:00,,0832.9,5.00,0.00,29.3,28.1,00.0,38.1,31.2,28.4,0000.0,0007.83,0003.84,0003.12
2022-07-09 04:35:00,,0832.8,5.01,0.00,29.4,28.2,00.0,38.1,31.3,28.3,0000.0,0007.76,0003.84,0003.10
2022-07-09 04:36:00,,0832.8,4.99,0.00,29.4,28.3,00.0,38.1,31.3,27.9,0000.0,0007.75,0003.80,0003.08
2022-07-09 04:37:00,,0832.8,5.00,0.00,29.4,28.4,00.0,38.1,31.4,28.3,0000.0,0007.80,0003.81,0003.07
2022-07-09 04:38:00,,0832.8,5.00,0.00,29.5,28.5,00.0,38.1,31.4,28.2,0000.0,0007.79,0003.83,0003.09
2022-07-09 04:39:00,,0832.9,5.00,0.00,29.5,28.6,00.0,38.2,31.5,28.0,0000.0,0007.72,0003.81,0003.10
2022-07-09 04:40:00,,0832.9,4.98,0.00,29.5,28.6,00.0,38.2,31.5,28.2,0000.0,0007.66,0003.81,0003.11
2022-07-09 04:41:00,,0832.9,5.00,0.00,29.5,27.9,00.0,38.1,31.4,28.2,0000.0,0007.68,0003.81,0003.11
2022-07-09 04:42:00,,0832.9,5.00,0.00,29.5,27.2,00.0,38.1,31.3,28.3,0000.0,0008.08,0003.79,0003.12
2022-07-09 04:43:00,,0832.9,5.00,0.00,29.4,26.8,00.0,38.1,31.1,28.2,0000.0,0008.13,0003.78,0003.12
2022-07-09 04:44:00,,0832.9,4.99,0.00,29.3,26.8,00.0,38.1,31.0,28.2,0000.0,0008.37,0003.76,0003.12
2022-07-09 04:45:00,,0833.0,5.00,0.00,29.3,26.9,00.0,38.0,31.0,28.2,0000.0,0008.54,0003.75,0003.13
2022-07-09 04:46:00,,0833.0,5.01,0.00,29.2,27.1,00.0,38.0,31.0,28.2,0000.0,0008.81,0003.71,0003.13
2022-07-09 04:47:00,,0833.0,5.00,0.00,29.2,27.3,00.0,38.0,31.0,28.3,0000.0,0009.28,0003.72,0003.14
2022-07-09 04:48:00,,0833.0,5.00,0.00,29.2,27.5,00.0,38.0,31.1,28.2,0000.0,0009.23,0003.71,0003.14
2022-07-09 04:49:00,,0833.0,4.99,0.00,29.3,27.7,00.0,38.1,31.1,28.0,0000.0,0009.26,0003.68,0003.12
2022-07-09 04:50:00,,0833.1,5.01,0.00,29.3,27.8,00.0,38.1,31.2,27.6,0000.0,0009.41,0003.71,0003.12
2022-07-09 04:51:00,,0833.1,5.00,0.00,29.3,28.0,00.0,38.1,31.2,27.8,0000.0,0009.55,0003.73,0003.11
2022-07-09 04:52:00,,0833.2,5.01,0.00,29.3,28.1,00.0,38.1,31.3,28.0,0000.0,0009.56,0003.72,0003.11
2022-07-09 04:53:00,,0833.2,5.00,0.00,29.4,28.2,00.0,38.1,31.3,28.8,0000.0,0009.31,0003.69,0003.11
2022-07-09 04:54:00,,0833.2,4.99,0.00,29.4,28.3,00.0,38.1,31.4,29.1,0000.0,0010.08,0003.69,0003.11
2022-07-09 04:55:00,,0833.3,5.00,0.00,29.4,28.4,00.0,38.1,31.4,29.1,0000.0,0009.88,0003.72,0003.11
2022-07-09 04:56:00,,0833.3,5.00,0.00,29.5,28.5,00.0,38.2,31.5,29.2,0000.0,0009.79,0003.74,0003.12
2022-07-09 04:57:00,,0833.2,5.00,0.00,29.5,28.6,00.0,38.2,31.5,29.5,0000.0,0010.51,0003.80,0003.12
2022-07-09 04:58:00,,0833.2,5.01,0.00,29.5,28.4,00.0,38.2,31.5,30.1,0000.0,0010.57,0003.82,0003.13
2022-07-09 04:59:00,,0833.2,5.01,0.00,29.5,27.7,00.0,38.1,31.4,31.1,0000.0,0010.85,0003.83,0003.14
